Regional Weather Roundup
Issued by NWS

Home | Current Version | Previous Version | Graphics & Text | Print | Product List | Glossary On
Versions: 1 2 3 4 5 6 7 8 9 10 11 12 13 14 15 16 17 18 19 20 21 22 23 24 25 26 27 28 29 30 31 32 33 34 35 36 37 38 39 40 41 42 43 44 45 46 47 48 49 50
000
ASUS43 KTOP 240708
RWRKS

WEATHER ROUNDUP FOR KANSAS
NATIONAL WEATHER SERVICE GOODLAND KS
200 AM CDT MON JUL 24 2017

NOTE:  "FAIR" INDICATES FEW OR NO CLOUDS BELOW 12,000 FEET WITH NO
SIGNIFICANT WEATHER AND/OR OBSTRUCTIONS TO VISIBILITY.

KSZ001>006-013>018-027>032-041>047-240800-
NORTHWEST KANSAS

CITY           SKY/WX    TMP DP  RH WIND       PRES   REMARKS
GOODLAND       CLEAR     68  57  68 S8        30.09S
HAYS             N/A     71  61  70 NE5       30.01S
HILL CITY      CLEAR     70  66  87 E5        30.03R
RUSSELL        CLEAR     74  62  66 E5        29.99S
$$

KSZ061>065-074>080-084>089-240800-
SOUTHWEST KANSAS

CITY           SKY/WX    TMP DP  RH WIND       PRES   REMARKS
DODGE CITY     CLEAR     71  63  75 S6        30.04S
ELKHART          N/A     68  55  63 SE7         N/A
GARDEN CITY    CLEAR     70  61  73 SE5       30.06R
LIBERAL        CLEAR     73  65  75 SE5       30.07S
PRATT          CLEAR     71  64  76 S3        30.01F
$$

KSZ066>073-081>083-090>101-240800-
SOUTHEAST KANSAS

CITY           SKY/WX    TMP DP  RH WIND       PRES   REMARKS
CHANUTE        CLEAR     74  72  93 S3        29.96R
COFFEYVILLE    CLEAR     74  72  93 S6        29.95S FOG
HUTCHINSON     CLEAR     69  67  93 E3        29.98R
MEDICINE LODGE   N/A     75  65  70 SW5       29.98S
NEWTON         CLEAR     76  70  82 S6        29.99R
PARSONS        CLEAR     74  70  87 CALM      29.96S
WICHITA INTL   PTCLDY    76  70  82 S3        29.97R
WICHITA JABRA  CLEAR     75  69  81 S6        29.97S
WICHITA MCCONL CLEAR     78  69  73 S5        29.98R
WINFIELD       CLEAR     75  68  78 SE3       29.98S
$$

KSZ007>012-019>026-033>040-048>060-102>105-240800-
NORTHEAST KANSAS

CITY           SKY/WX    TMP DP  RH WIND       PRES   REMARKS
CONCORDIA      CLEAR     72  67  84 E5        29.99S
EMPORIA        CLEAR     72  71  97 SE5       29.96S
LAWRENCE       PTCLDY    77  69  76 N3        29.95S
MANHATTAN      CLEAR     78  67  68 NE8       29.97S
MARYSVILLE     CLEAR     68  64  88 NE5       29.99F
OLATHE IND     PTCLDY    74  71  91 N6        29.96S
OLATHE EXE     CLEAR     77  68  73 NE7       29.96S
SALINA         CLEAR     78  68  71 N3        29.97R
TOPEKA BILLARD MOCLDY    76  73  91 N6        29.96S
TOPEKA FORBES  CLEAR     78  73  84 NE3       29.96S
$$




USA.gov is the U.S. government's official web portal to all federal, state and local government web resources and services.